Flag for China Weather past 2 weeks in Guilin, Guangxi, China

Now
63 °F

Fog.


Feels Like: 63 °F
Forecast: 60 / 73 °F
Wind: 1 mph from North

Location: Guilin Airport

Current Time: Mar 27, 2015 at 4:15:17 AM

Latest Report: Mar 27, 2015 at 3:00 AM


Visibility: 1 mi

Pressure: 30.21 "Hg

Humidity: 94%

Dew point: 61 °F

Location of GuilinLocation

Historic Weather in Guilin — Graph

°F

Guilin temperature yesterday

Maximum temperature yesterday: 68 °F (at 5:00 PM)
Minimum temperature yesterday: 57 °F (at 4:00 AM)
Average temperature yesterday: 62 °F

Past Weeks' High & Low Weather Summary

 TemperatureHumidityPressure
High84 °F (Mar 18, 4:00 PM)100% (Mar 13, 4:00 AM)30.33 "Hg (Mar 13, 4:00 AM)
Low48 °F (Mar 12, 3:00 AM)47% (Mar 22, 4:00 PM)29.65 "Hg (Mar 17, 4:00 PM)
Average62 °F85%30.04 "Hg
* Reported Mar 12 3:00 AM — Mar 27 3:00 AM, Guilin, Weather by CustomWeather, © 2015

Note: Actual official high and low records may vary slightly from our data, if they occured in-between our weather recording intervals... More about our weather records

Advertising

Guilin weather history for previous 24 hours

 ConditionsComfort  
Time TempWeatherWind HumidityBarometerVisibility
3:00 AM
Fri, Mar 27
63 °FFog.1 mph94%30.21 "Hg1 mi
2:00 AM63 °FFog.1 mph94%30.24 "Hg1 mi
1:00 AM63 °FFog.1 mph94%30.24 "Hg2 mi
12:00 AM64 °FFog.1 mph88%30.27 "Hg2 mi
11:00 PM
Thu, Mar 26
64 °FFog.1 mph88%30.27 "Hg2 mi
10:00 PM64 °FFog.1 mph88%30.27 "Hg2 mi
9:00 PM64 °FFog.1 mph88%30.24 "Hg3 mi
8:00 PM64 °FFog.1 mph88%30.24 "Hg3 mi
7:00 PM66 °FMostly cloudy.No wind83%30.21 "Hg4 mi
6:00 PM66 °FMore clouds than sun.1 mph78%30.18 "Hg4 mi
5:00 PM68 °FBroken clouds.1 mph73%30.18 "Hg5 mi
4:00 PM66 °FMore clouds than sun.1 mph73%30.18 "Hg5 mi
3:00 PM66 °FMore clouds than sun.1 mph73%30.18 "Hg4 mi
2:00 PM66 °FMore clouds than sun.1 mph73%30.21 "Hg4 mi
1:00 PM64 °FFog.1 mph78%30.27 "Hg2 mi
12:00 PM63 °FFog.1 mph83%30.30 "Hg2 mi
11:00 AM63 °FFog.1 mph77%30.30 "Hg2 mi
10:00 AM59 °FFog.No wind100%30.30 "Hg2 mi
9:00 AM59 °FFog.No wind94%30.30 "Hg1 mi
8:00 AM59 °FFog.1 mph94%30.27 "Hg1 mi
7:00 AM57 °FFog.No wind100%30.24 "Hg1 mi
6:00 AM57 °FFog.No wind100%30.24 "Hg1 mi
5:00 AM57 °FFog.No wind100%30.21 "Hg1 mi
4:00 AM57 °FFog.1 mph100%30.21 "Hg1 mi
Weather by CustomWeather, © 2015

See weather overviewHow to use our weather pages